STARLINK-2717 (48659 NORAD) Tracking and Keplerian Element Data

This shows tracking and keplerian element data for the satellite.

Feedback or suggestion? Click here.




ElementValue
Catalog48659
NameSTARLINK-2717
Epoch Orbit1050
Epoch Day214.75380844
Epoch Year2021
RAAN103.1313
Inclination53.0561
Eccentricity0.0001802
Argument of Perigee90.4294
Mean Anonmoly269.6902
Mean Motion15.06390772
Decay Rate-9.76E-06
L11 48659U 21044X 21214.75380844 -.00000976 00000-0 -46625-4 0 9993
L22 48659 53.0561 103.1313 0001802 90.4294 269.6902 15.06390772 10505

Live tracking and technical data element details for STARLINK-2717 (NORAD 48659). STARLINK-2717 can be tracked NOW for your location showing map with azimuth and elevation plus other details from your city location.

Track the satellite on the map from your city or location and see movement details for azimuth, elevation, latitude, longitude, range, height, and movement on the map or in text.







IsCatalogInMostPopularTable: catalog: 48659, numindb: 13
Update: records affected: 1



GetName: 48659 STARLINK-2717

Hit Count: updated at: Tue, 03 Aug 2021 20:42:54 GMT